Location: Neuvy-Saint-S�pulchre
(46.5950°N, 1.8122°E)
Time: 11:18:27
(UTC+02:00)

ISS - Visible Passes

Search period start: 15 May 2021 00:00
Search period end: 25 May 2021 00:00
Orbit: 417 x 422 km, 51.6° (Epoch: 15 May)

Date Brightness Start Highest point End Pass type
(mag) Time Alt. Az. Time Alt. Az. Time Alt. Az.
15 May -3.2 00:25:52 10° W 00:29:11 57° NNW 00:32:32 10° ENE visible
15 May -2.0 02:03:19 10° WNW 02:06:25 33° N 02:09:32 10° ENE visible
15 May -3.1 03:40:19 10° WNW 03:43:39 55° NNE 03:46:59 10° E visible
15 May -3.0 05:17:18 10° WNW 05:20:21 32° SW 05:23:24 10° SSE visible
15 May -2.3 22:02:44 10° S 22:05:13 19° SE 22:07:43 10° E visible
15 May -3.7 23:38:20 10° WSW 23:41:42 79° NNW 23:45:05 10° ENE visible
16 May -2.1 01:15:42 10° WNW 01:18:50 34° N 01:21:58 10° ENE visible
16 May -2.6 02:52:52 10° WNW 02:56:07 43° NNE 02:59:22 10° E visible
16 May -3.6 04:29:43 10° WNW 04:33:00 49° SSW 04:36:16 10° SE visible
16 May -3.9 22:50:55 10° SW 22:54:15 72° SSE 22:57:37 10° ENE visible
17 May -2.3 00:28:05 10° W 00:31:15 38° N 00:34:27 10° ENE visible
17 May -2.2 02:05:23 10° WNW 02:08:34 37° N 02:11:45 10° E visible
17 May -3.9 03:42:12 10° WNW 03:45:36 76° SSW 03:48:57 10° SE visible
17 May -1.9 05:20:12 10° WSW 05:21:54 13° SW 05:23:36 10° SSW visible
17 May -3.5 22:03:37 10° SW 22:06:51 46° SE 22:10:06 10° ENE visible
17 May -2.6 23:40:27 10° W 23:43:42 45° NNW 23:46:58 10° ENE visible
18 May -2.0 01:17:52 10° WNW 01:20:59 34° N 01:22:53 19° ENE visible
18 May -1.5 02:54:44 10° WNW 02:55:45 18° WNW 02:55:45 18° WNW visible
18 May -3.1 22:52:51 10° W 22:56:10 57° NNW 22:59:30 10° ENE visible
19 May -2.0 00:30:17 10° WNW 00:33:24 33° N 00:36:27 10° ENE visible
19 May -2.2 02:07:18 10° WNW 02:09:22 32° NW 02:09:22 32° NW visible
19 May -3.6 22:05:18 10° WSW 22:08:40 79° NNW 22:12:03 10° ENE visible
19 May -2.0 23:42:40 10° WNW 23:45:48 34° N 23:48:55 10° ENE visible
20 May -2.7 01:19:50 10° WNW 01:23:05 43° NNE 01:23:11 43° NNE visible
20 May -2.2 22:55:02 10° W 22:58:12 37° N 23:01:23 10° ENE visible
21 May -2.3 00:32:20 10° WNW 00:35:30 37° N 00:37:05 23° ENE visible
21 May -1.4 02:09:09 10° WNW 02:10:01 17° WNW 02:10:01 17° WNW visible
21 May -2.5 22:07:23 10° W 22:10:38 44° NNW 22:13:53 10° ENE visible
21 May -2.1 23:44:47 10° WNW 23:47:55 34° N 23:51:02 10° ENE visible
22 May -2.6 01:21:40 10° WNW 01:23:58 40° NW 01:23:58 40° NW visible
22 May -2.0 22:57:12 10° WNW 23:00:18 33° N 23:03:24 10° ENE visible
23 May -3.2 00:34:12 10° WNW 00:37:32 55° NNE 00:37:56 51° NE visible
23 May -2.1 22:09:34 10° WNW 22:12:41 34° N 22:15:49 10° ENE visible
23 May -2.7 23:46:43 10° WNW 23:49:58 44° NNE 23:51:57 20° E visible
24 May -1.7 01:23:34 10° WNW 01:24:53 21° W 01:24:53 21° W visible
24 May -2.4 22:59:13 10° WNW 23:02:23 37° N 23:05:33 10° E visible
